Tracking 18840 objects as of 19-November-2017
HD Live streaming from Space Station
objects crossing your sky now

FENGYUN 1C DEB

Track FENGYUN 1C DEB now!
10-day predictions


NORAD ID: 32187
Int'l Code: 1999-025CUH
Perigee: 862.6 km
Apogee: 1,305.5 km
Inclination: 99.3 °
Period: 106.8 minutes
Semi major axis: 7455 km
RCS: 0.0135 m2 (small)
Launch date: May 10, 1999
Source: People's Republic of China (PRC)
Launch site: Taiyaun Space Center, China (TSC)

Note: This is SATELLITE DEBRIS
aabbcc
Your satellite tracking list
Your tracking list is empty




NASA's NSSDC Master Catalog

Two Line Element Set (TLE):
1 32187U 99025CUH 17322.35443381 +.00000118 +00000-0 +19609-3 0  9990
2 32187 099.3166 150.1136 0297073 322.3616 157.5286 13.48742422265245
Source of the keplerian elements: AFSPC